TimeEET,TemperatureF,Dew PointF,Humidity,Sea Level PressureIn,VisibilityMPH,Wind Direction,Wind SpeedMPH,Gust SpeedMPH,PrecipitationIn,Events,Conditions,WindDirDegrees,DateUTC
12:20 AM,39.2,39.2,100,30.15,3.7,WNW,4.6,-,N/A,,Mostly Cloudy,300,2012-11-18 22:20:00
12:50 AM,39.2,39.2,100,30.15,3.7,SSW,4.6,-,N/A,,Mostly Cloudy,210,2012-11-18 22:50:00
1:20 AM,39.2,39.2,100,30.15,3.7,West,4.6,-,N/A,,Mostly Cloudy,260,2012-11-18 23:20:00
1:50 AM,39.2,37.4,93,30.15,3.7,WSW,5.8,-,N/A,,Mostly Cloudy,240,2012-11-18 23:50:00
2:00 AM,39,38,92,30.23,6,WSW,5.8,,,,Mist,240,2012-11-19 00:00:00
2:20 AM,37.4,37.4,100,30.15,3.1,WSW,3.5,-,N/A,,Mostly Cloudy,250,2012-11-19 00:20:00
2:50 AM,37.4,37.4,100,30.15,3.1,West,4.6,-,N/A,,Mostly Cloudy,280,2012-11-19 00:50:00
3:20 AM,37.4,37.4,100,30.15,-9999.0,WNW,4.6,-,N/A,,Mostly Cloudy,300,2012-11-19 01:20:00
3:50 AM,37.4,37.4,100,30.18,-9999.0,West,3.5,-,N/A,,Mostly Cloudy,270,2012-11-19 01:50:00
4:20 AM,37.4,37.4,100,30.18,2.2,Variable,2.3,-,N/A,,Overcast,0,2012-11-19 02:20:00
4:50 AM,37.4,37.4,100,30.18,-9999.0,Variable,1.2,-,N/A,,Overcast,0,2012-11-19 02:50:00
5:20 AM,37.4,37.4,100,30.18,1.7,Variable,2.3,-,N/A,,Overcast,0,2012-11-19 03:20:00
5:50 AM,37.4,37.4,100,30.18,1.7,East,3.5,-,N/A,,Overcast,100,2012-11-19 03:50:00
6:20 AM,37.4,37.4,100,30.18,1.8,Variable,1.2,-,N/A,,Overcast,0,2012-11-19 04:20:00
6:50 AM,37.4,37.4,100,30.18,1.7,Variable,2.3,-,N/A,,Overcast,0,2012-11-19 04:50:00
7:20 AM,37.4,37.4,100,30.18,1.6,NW,3.5,-,N/A,,Overcast,320,2012-11-19 05:20:00
7:50 AM,37.4,37.4,100,30.18,1.6,West,3.5,-,N/A,,Overcast,260,2012-11-19 05:50:00
8:00 AM,38,38,99,30.27,2,West,3.5,,,,Mist,260,2012-11-19 06:00:00
8:20 AM,37.4,37.4,100,30.21,1.5,Variable,3.5,-,N/A,,Overcast,0,2012-11-19 06:20:00
8:50 AM,37.4,37.4,100,30.18,1.6,Variable,2.3,-,N/A,,Overcast,0,2012-11-19 06:50:00
9:20 AM,37.4,37.4,100,30.18,1.6,Variable,2.3,-,N/A,,Overcast,0,2012-11-19 07:20:00
9:50 AM,39.2,37.4,93,30.21,1.9,Variable,2.3,-,N/A,,Overcast,0,2012-11-19 07:50:00
10:20 AM,39.2,39.2,100,30.18,1.8,South,3.5,-,N/A,,Overcast,190,2012-11-19 08:20:00
10:50 AM,39.2,37.4,93,30.18,-9999.0,NNE,3.5,-,N/A,,Overcast,30,2012-11-19 08:50:00
11:20 AM,39.2,37.4,93,30.18,2.5,NNE,4.6,-,N/A,,Overcast,20,2012-11-19 09:20:00
11:50 AM,39.2,37.4,93,30.18,2.5,Variable,1.2,-,N/A,,Overcast,0,2012-11-19 09:50:00
12:20 PM,41.0,41.0,100,30.18,-9999.0,Variable,1.2,-,N/A,,Overcast,0,2012-11-19 10:20:00
12:50 PM,41.0,39.2,93,30.18,3.7,Variable,2.3,-,N/A,,Overcast,0,2012-11-19 10:50:00
1:20 PM,41.0,39.2,93,30.18,3.7,NNE,6.9,-,N/A,,Overcast,20,2012-11-19 11:20:00
1:50 PM,42.8,41.0,93,30.18,3.7,NNE,3.5,-,N/A,,Overcast,20,2012-11-19 11:50:00
2:00 PM,42,40,92,30.24,4,NNE,3.5,,,,Mist,20,2012-11-19 12:00:00
2:20 PM,42.8,39.2,87,30.18,3.7,NNW,3.5,-,N/A,,Overcast,340,2012-11-19 12:20:00
2:50 PM,42.8,37.4,81,30.18,3.7,NNE,3.5,-,N/A,,Overcast,20,2012-11-19 12:50:00
3:20 PM,42.8,37.4,81,30.18,-9999.0,Variable,2.3,-,N/A,,Overcast,0,2012-11-19 13:20:00
3:50 PM,42.8,37.4,81,30.18,-9999.0,SW,4.6,-,N/A,,Overcast,230,2012-11-19 13:50:00
4:20 PM,42.8,37.4,81,30.18,-9999.0,Variable,2.3,-,N/A,,Overcast,0,2012-11-19 14:20:00
4:50 PM,42.8,37.4,81,30.18,3.7,Variable,2.3,-,N/A,,Overcast,0,2012-11-19 14:50:00
5:20 PM,42.8,37.4,81,30.18,3.7,Variable,2.3,-,N/A,,Overcast,0,2012-11-19 15:20:00
5:50 PM,42.8,37.4,81,30.21,3.7,Variable,1.2,-,N/A,,Overcast,0,2012-11-19 15:50:00
6:20 PM,41.0,37.4,87,30.21,3.7,Variable,1.2,-,N/A,,Overcast,0,2012-11-19 16:20:00
6:50 PM,41.0,37.4,87,30.21,3.7,North,3.5,-,N/A,,Overcast,10,2012-11-19 16:50:00
7:20 PM,41.0,37.4,87,30.21,3.1,North,3.5,-,N/A,,Overcast,360,2012-11-19 17:20:00
7:50 PM,41.0,37.4,87,30.21,3.1,North,4.6,-,N/A,,Overcast,10,2012-11-19 17:50:00
8:00 PM,41,37,81,30.29,3,North,4.6,,,,Mist,10,2012-11-19 18:00:00
8:20 PM,41.0,37.4,87,30.21,-9999.0,NNE,3.5,-,N/A,,Overcast,30,2012-11-19 18:20:00
8:50 PM,41.0,37.4,87,30.21,-9999.0,NW,3.5,-,N/A,,Overcast,320,2012-11-19 18:50:00
9:20 PM,41.0,37.4,87,30.21,-9999.0,Variable,2.3,-,N/A,,Overcast,0,2012-11-19 19:20:00
9:50 PM,41.0,37.4,87,30.21,-9999.0,ENE,5.8,-,N/A,,Overcast,60,2012-11-19 19:50:00
10:20 PM,41.0,37.4,87,30.21,-9999.0,Variable,2.3,-,N/A,,Overcast,0,2012-11-19 20:20:00
10:50 PM,39.2,37.4,93,30.21,-9999.0,Variable,2.3,-,N/A,,Overcast,0,2012-11-19 20:50:00
11:20 PM,39.2,37.4,93,30.21,-9999.0,Variable,3.5,-,N/A,,Overcast,0,2012-11-19 21:20:00
11:50 PM,39.2,37.4,93,30.21,-9999.0,Variable,2.3,-,N/A,,Overcast,0,2012-11-19 21:50:00